Tracking 30995 objects as of 5-Jul-2025
HD Live streaming from Space Station
objects crossing your sky now

SEA LAUNCH DEMO

Track SEA LAUNCH DEMO now!
SEA LAUNCH DEMO is classified as:


NORAD ID: 25661
Int'l Code: 1999-014A
Perigee: 676.3 km
Apogee: 36,039.1 km
Inclination: 1.1 °
Period: 645.0 minutes
Semi major axis: 24728 km
RCS: 5.9526 m2 (large)
Launch date: March 28, 1999
Source: Sea Launch (SEAL)
Launch site: SEA LAUNCH (SEAL)
Your satellite tracking list
SL-8 R/B
Track 1 satellite(s)




NASA's NSSDC Master Catalog

Two Line Element Set (TLE):
1 25661U 99014A   25186.21866322 -.00000059  00000-0 -17157-4 0  9996
2 25661   1.0644  83.6164 7150147  79.9563 346.6493  2.23254809214365
Source of the keplerian elements: AFSPC